| time (UTC) | temp F | wind direction | speed MPH | gust MPH | rain 1hr in | rain 24hr in | rain mn in | humidity % | barometer mb |
| 20260505041021 | 61 | 145 | 13.0 | 19.0 | 0.00 | 0.01 | 0.01 | 61 | 1003.0 |
| 20260505040027 | 62 | 156 | 9.0 | 12.0 | 0.00 | 0.01 | 0.01 | 57 | 1002.9 |
| 20260505035021 | 63 | 182 | 11.0 | 16.0 | 0.00 | 0.01 | 0.01 | 55 | 1002.5 |
| 20260505034102 | 64 | 169 | 10.0 | 13.0 | 0.00 | 0.01 | 0.01 | 54 | 1002.7 |
| 20260505033018 | 65 | 146 | 10.0 | 16.0 | 0.00 | 0.01 | 0.01 | 48 | 1002.4 |
| 20260505032053 | 65 | 166 | 10.0 | 14.0 | 0.00 | 0.01 | 0.01 | 48 | 1002.1 |
| 20260505031017 | 66 | 148 | 10.0 | 14.0 | 0.00 | 0.01 | 0.01 | 48 | 1001.9 |
| 20260505030018 | 66 | 176 | 9.0 | 14.0 | 0.00 | 0.01 | 0.01 | 48 | 1001.9 |
| 20260505025113 | 66 | 147 | 7.0 | 10.0 | 0.00 | 0.01 | 0.01 | 48 | 1001.9 |
| 20260505024027 | 66 | 172 | 6.0 | 8.0 | 0.00 | 0.01 | 0.01 | 48 | 1001.8 |
| 20260505023107 | 66 | 138 | 6.0 | 9.0 | 0.00 | 0.01 | 0.01 | 47 | 1001.9 |
| 20260505022024 | 67 | 169 | 6.0 | 9.0 | 0.00 | 0.01 | 0.01 | 47 | 1001.8 |
| 20260505021045 | 67 | 140 | 4.0 | 6.0 | 0.00 | 0.01 | 0.01 | 47 | 1001.8 |
| 20260505020025 | 67 | 138 | 3.0 | 5.0 | 0.00 | 0.01 | 0.01 | 46 | 1001.7 |
| 20260505015019 | 68 | 165 | 6.0 | 10.0 | 0.00 | 0.01 | 0.01 | 46 | 1001.7 |
| 20260505014018 | 68 | 141 | 8.0 | 12.0 | 0.00 | 0.01 | 0.01 | 45 | 1001.8 |
| 20260505013019 | 70 | 154 | 6.0 | 11.0 | 0.00 | 0.01 | 0.01 | 44 | 1001.9 |
| 20260505012020 | 70 | 118 | 7.0 | 12.0 | 0.00 | 0.01 | 0.01 | 44 | 1002.0 |
| 20260505011024 | 70 | 162 | 5.0 | 8.0 | 0.00 | 0.01 | 0.01 | 41 | 1002.0 |
| 20260505010021 | 70 | 180 | 5.0 | 6.0 | 0.00 | 0.01 | 0.01 | 40 | 1002.0 |
| 20260505005023 | 71 | 169 | 5.0 | 6.0 | 0.00 | 0.01 | 0.01 | 40 | 1001.9 |
| 20260505004022 | 72 | 176 | 3.0 | 5.0 | 0.00 | 0.01 | 0.01 | 39 | 1002.0 |
| 20260505003024 | 72 | 162 | 4.0 | 6.0 | 0.00 | 0.01 | 0.01 | 40 | 1002.2 |
| 20260505002026 | 71 | 39 | 2.0 | 5.0 | 0.00 | 0.01 | 0.01 | 40 | 1002.2 |
| 20260505001030 | 70 | 53 | 5.0 | 7.0 | 0.00 | 0.01 | 0.01 | 41 | 1002.3 |
| 20260505000033 | 71 | 322 | 4.0 | 7.0 | 0.00 | 0.01 | 0.01 | 42 | 1002.4 |
| 20260504235038 | 71 | 20 | 6.0 | 7.0 | 0.00 | 0.01 | 0.01 | 42 | 1002.3 |
| 20260504234034 | 72 | 356 | 8.0 | 12.0 | 0.00 | 0.01 | 0.01 | 42 | 1002.4 |
| 20260504233021 | 71 | 27 | 9.0 | 11.0 | 0.01 | 0.01 | 0.01 | 43 | 1002.6 |
| 20260504232022 | 70 | 42 | 9.0 | 11.0 | 0.01 | 0.01 | 0.01 | 43 | 1002.5 |
| 20260504231022 | 70 | 18 | 10.0 | 14.0 | 0.01 | 0.01 | 0.01 | 43 | 1002.5 |
| 20260504230032 | 71 | 25 | 9.0 | 13.0 | 0.01 | 0.01 | 0.01 | 42 | 1002.6 |
| 20260504225018 | 71 | 27 | 11.0 | 18.0 | 0.01 | 0.01 | 0.01 | 42 | 1002.6 |
| 20260504224021 | 71 | 28 | 13.0 | 18.0 | 0.01 | 0.01 | 0.01 | 43 | 1002.6 |
| 20260504223020 | 72 | 23 | 9.0 | 15.0 | 0.00 | 0.00 | 0.00 | 44 | 1002.9 |
| 20260504222046 | 70 | 40 | 8.0 | 11.0 | 0.00 | 0.00 | 0.00 | 47 | 1003.0 |
| 20260504221105 | 65 | 30 | 6.0 | 8.0 | 0.00 | 0.00 | 0.00 | 53 | 1003.2 |
| 20260504220029 | 67 | 55 | 9.0 | 17.0 | 0.00 | 0.00 | 0.00 | 54 | 1003.3 |
| 20260504215158 | 68 | 297 | 3.0 | 4.0 | 0.00 | 0.00 | 0.00 | 50 | 1003.1 |
| 20260504214025 | 67 | 203 | 5.0 | 9.0 | 0.00 | 0.00 | 0.00 | 52 | 1003.0 |
| 20260504213025 | 65 | 252 | 7.0 | 12.0 | 0.00 | 0.00 | 0.00 | 57 | 1003.1 |
| 20260504212107 | 69 | 259 | 10.0 | 15.0 | 0.00 | 0.00 | 0.00 | 46 | 1003.0 |
| 20260504211042 | 73 | 265 | 8.0 | 14.0 | 0.00 | 0.00 | 0.00 | 40 | 1002.9 |
| 20260504210018 | 74 | 202 | 6.0 | 9.0 | 0.00 | 0.00 | 0.00 | 39 | 1002.9 |
| 20260504205038 | 76 | 229 | 3.0 | 4.0 | 0.00 | 0.00 | 0.00 | 35 | 1002.7 |
| 20260504204020 | 78 | 232 | 5.0 | 7.0 | 0.00 | 0.00 | 0.00 | 34 | 1002.9 |
| 20260504203022 | 80 | 251 | 6.0 | 9.0 | 0.00 | 0.00 | 0.00 | 34 | 1002.8 |
| 20260504202048 | 82 | 259 | 3.0 | 8.0 | 0.00 | 0.00 | 0.00 | 32 | 1002.9 |
| 20260504201030 | 80 | 181 | 3.0 | 5.0 | 0.00 | 0.00 | 0.00 | 33 | 1002.9 |
| 20260504200214 | 80 | 271 | 4.0 | 6.0 | 0.00 | 0.00 | 0.00 | 34 | 1003.0 |
| 20260504195024 | 77 | 299 | 4.0 | 7.0 | 0.00 | 0.00 | 0.00 | 35 | 1003.1 |
| 20260504194042 | 80 | 258 | 5.0 | 7.0 | 0.00 | 0.00 | 0.00 | 33 | 1003.3 |
| 20260504193020 | 80 | 181 | 5.0 | 8.0 | 0.00 | 0.00 | 0.00 | 33 | 1003.4 |
| 20260504192032 | 79 | 130 | 3.0 | 7.0 | 0.00 | 0.00 | 0.00 | 34 | 1003.4 |
| 20260504191024 | 79 | 138 | 7.0 | 13.0 | 0.00 | 0.00 | 0.00 | 34 | 1003.4 |
| 20260504190026 | 78 | 174 | 7.0 | 12.0 | 0.00 | 0.00 | 0.00 | 35 | 1003.5 |
| 20260504185028 | 81 | 139 | 5.0 | 9.0 | 0.00 | 0.00 | 0.00 | 33 | 1003.9 |
| 20260504184032 | 82 | 132 | 5.0 | 7.0 | 0.00 | 0.00 | 0.00 | 34 | 1003.8 |
| 20260504183038 | 80 | 111 | 6.0 | 10.0 | 0.00 | 0.00 | 0.00 | 35 | 1004.0 |
| 20260504182018 | 79 | 168 | 8.0 | 13.0 | 0.00 | 0.00 | 0.00 | 34 | 1004.2 |
| 20260504181032 | 0 | 158 | 8.0 | 8.0 | 0.00 | 0.00 | 0.00 | 1004.2 | |
| 20260504180033 | 78 | 146 | 9.0 | 16.0 | 0.00 | 0.00 | 0.00 | 36 | 1004.2 |
| 20260504175019 | 77 | 150 | 8.0 | 11.0 | 0.00 | 0.00 | 0.00 | 36 | 1004.5 |
| 20260504174031 | 76 | 165 | 8.0 | 13.0 | 0.00 | 0.00 | 0.00 | 37 | 1004.4 |
| 20260504173017 | 76 | 161 | 8.0 | 11.0 | 0.00 | 0.00 | 0.00 | 38 | 1004.5 |
| 20260504172021 | 76 | 129 | 7.0 | 9.0 | 0.00 | 6.89 | 0.00 | 38 | 1004.7 |
| 20260504171021 | 75 | 123 | 6.0 | 10.0 | 0.00 | 6.89 | 0.00 | 40 | 1004.8 |
| 20260504151025 | 69 | 179 | 6.0 | 9.0 | 0.00 | 6.89 | 0.00 | 46 | 1005.2 |
| 20260504141016 | 66 | 85 | 4.0 | 5.0 | 0.00 | 6.89 | 0.00 | 48 | 1005.2 |
| 20260504081031 | 61 | 168 | 10.0 | 13.0 | 0.00 | 6.89 | 0.00 | 45 | 1005.2 |
| 20260504050016 | 58 | 0.0 | 0.0 | 0.00 | 6.89 | 6.89 | 46 | 1005.2 | |
| 20260504045033 | 58 | 0.0 | 0.0 | 0.00 | 6.89 | 6.89 | 46 | 1005.2 | |
| 20260504044020 | 58 | 0.0 | 0.0 | 0.00 | 6.89 | 6.89 | 46 | 1005.3 | |
| 20260504043021 | 59 | 158 | 0.0 | 2.0 | 0.00 | 6.89 | 6.89 | 45 | 1005.5 |
| 20260504042030 | 60 | 0.0 | 1.0 | 0.00 | 6.89 | 6.89 | 45 | 1005.3 |